174  
ASUS41 KALY 201210  
RWRALY  
 
NEW YORK STATE HOURLY WEATHER ROUNDUP  
NATIONAL WEATHER SERVICE ALBANY NY  
700 AM EST THU FEB 20 2020  
 
NOTE: "FAIR" INDICATES FEW OR NO CLOUDS BELOW 12,000 FEET WITH NO  
SIGNIFICANT WEATHER AND/OR NO S TO VISIBILITY
.  
 
NYZ032-033-038>043-046>054-057>066-NYZ062>081-082-084-201300-  
EAST  
 
 
CITY SKY/WX TMP DP RH WIND PRES REMARKS
 
ALBANY MOCLDY 21 9 59 SW3 30.42S  
GLENS FALLS FAIR 0 -4 83 CALM 30.40S  
POUGHKEEPSIE FAIR 21 12 68 CALM 30.44R  
NEWBURGH PTCLDY 19 14 79 W6 30.43R WCI 11  
MONTGOMERY FAIR 17 13 84 W3 30.42S  
WHITE PLAINS FAIR 26 9 48 W6 30.43R WCI 19  
ISLIP MOCLDY 28 10 46 NW8 30.45R WCI 20  
NEW YORK CITY MOCLDY 29 11 47 NW14 30.46S WCI 18  
CENTRAL PARK FAIR 29 11 47 CALM 30.47S  

 
 
NYZ005>009-017-018-044>046-055-056-201300-  
CENTRAL  
 
 
CITY SKY/WX TMP DP RH WIND PRES REMARKS
 
FULTON CLOUDY 22 11 62 NW7 30.42R WCI 13  
SYRACUSE LGT SNOW 19 15 84 W12 30.42S FOG WCI 7  
ROME CLOUDY 17 14 88 CALM 30.41S  
ELMIRA FAIR 14 8 77 CALM 30.43R  
BINGHAMTON FAIR 15 6 67 W5 30.34R WCI 8  
MONTICELLO FAIR 16 12 84 W5 30.37R WCI 9  

 
 
NYZ026>034-041>043-087-201300-  
NORTH  
 
 
CITY SKY/WX TMP DP RH WIND PRES REMARKS
 
WATERTOWN CLOUDY 19 9 65 W3 30.42R  
FORT DRUM NOT AVBL  
OGDENSBURG CLOUDY 9 3 78 N7 30.42R WCI -3  
MASSENA LGT SNOW 8 2 76 NE6 30.46R WCI -2  
SARANAC LAKE CLOUDY 6 1 80 SW3 30.24S  
PLATTSBURGH CLOUDY 9 2 73 N7 30.41R WCI -2  

 
 
NYZ001>004-010>016-019>021-085-201300-  
WEST  
 
 
CITY SKY/WX TMP DP RH WIND PRES REMARKS
 
NIAGARA FALLS FAIR 16 9 74 W9 30.45R WCI 4  
BUFFALO MOCLDY 21 11 65 W9 30.44R WCI 11  
DUNKIRK MOCLDY 23 10 57 NW12 30.47R WCI 12  
JAMESTOWN FLURRIES 17 14 88 NW8 30.38R WCI 7  
WELLSVILLE FAIR 13 9 84 MISG 30.34R  
ROCHESTER LGT SNOW 19 13 77 NW6 30.44R VSB 1 WCI 11  
PENN YAN FAIR 18 8 65 SW9 30.41R WCI 7  

 
 
KEY  
WCI = WIND CHILL INDEX  
VSB = VISIBILITY  
HX = HEAT INDEX  

 
 
 
CLICK HERE TO GO TO PREVIOUS BULLETINS.

The Nexlab NY Page
The Nexlab VT Page
The Nexlab MA Page
The Nexlab CT Page Main Text Page